Tracking 28052 objects as of 25-Sep-2023
HD Live streaming from Space Station
objects crossing your sky now

COSMOS 1375 DEB

Track COSMOS 1375 DEB now!
10-day predictions


NORAD ID: 17806
Int'l Code: 1982-055AY
Perigee: 920.2 km
Apogee: 1,017.7 km
Inclination: 65.8 °
Period: 104.3 minutes
Semi major axis: 7339 km
RCS: 0.0072 m2 (small)
Launch date: June 6, 1982
Source: Commonwealth of Independent States (former USSR) (CIS)
Launch site: PLESETSK MISSILE AND SPACE COMPLEX (PKMTR)

Note: This is SATELLITE DEBRIS
Your satellite tracking list
Your tracking list is empty




NASA's NSSDC Master Catalog

Two Line Element Set (TLE):
1 17806U 82055AY  23267.80213392 -.00000008  00000-0  68918-4 0  9995
2 17806  65.8359  40.8864 0066416 294.2079 185.4372 13.80592048909172
Source of the keplerian elements: AFSPC